Probability
0 0 0 0 0 0 0 0 0 0 0 0 0 0 0 0 0 0 0 0 3 3 6 3 3 6 6 3 3 0 3 6 0 3 3 3 3 3 0 3 0 3 3
0 0 0 0 0 0 0 0 0 0 0 0 0 0 0 0 0 0 0 0 0 3 3 6 6 6 6 3 3 3 3 0 3 3 3 3 3 3 0 3 0 0 0
0 0 0 0 0 0 0 0 0 0 0 0 0 0 0 0 0 0 0 0 0 0 3 3 6 6 3 3 3 3 3 3 3 6 3 3 0 0 0 0 0 0 0
3 0 0 0 0 0 0 0 0 0 0 0 0 0 0 0 0 0 0 0 0 0 0 0 3 3 6 0 3 3 3 6 3 3 3 3 0 0 0 0 0 0 0
3 0 0 0 0 0 0 0 0 0 0 0 0 0 0 0 0 0 0 0 0 0 0 0 0 0 0 6 0 3 3 6 0 0 3 3 0 0 0 0 0 0 0
3 3 0 0 0 0 0 0 0 0 0 0 0 0 0 0 0 0 0 0 0 0 0 0 0 0 0 0 0 0 3 3 3 3 0 3 0 0 0 0 0 0 0
3 3 3 0 0 0 0 0 0 0 0 0 0 0 0 0 0 0 0 0 0 0 0 0 0 0 0 0 0 0 0 0 3 3 0 0 0 0 0 0 0 0 0
0 0 0 0 0 0 0 0 0 0 0 0 0 0 0 0 0 0 0 0 0 0 0 0 0 0 0 0 0 0 0 0 0 0 3 0 0 0 0 0 0 0 0
0 0 0 0 0 0 0 0 0 0 0 0 0 0 0 0 0 0 0 0 0 0 0 0 0 0 0 0 0 0 0 0 0 0 0 0 0 0 0 0 0 0 0
0 0 0 0 0 0 0 0 0 0 0 0 0 0 0 0 0 0 0 0 0 0 0 0 0 0 0 0 0 0 0 0 0 0 0 0 0 0 0 0 0 0 0
0 0 0 0 0 0 0 0 0 0 0 0 0 0 0 0 0 0 0 0 0 0 0 0 0 0 0 0 0 0 0 0 0 0 0 0 0 0 0 0 0 0 0
0 0 0 0 0 0 0 0 0 0 0 0 0 0 0 0 0 0 0 0 0 0 0 0 0 0 0 0 0 0 0 0 0 0 0 0 0 0 0 0 0 0 0
0 0 0 0 0 0 0 0 0 0 0 0 0 0 0 0 0 0 0 0 0 0 0 0 0 0 0 0 0 0 0 0 0 0 0 0 0 0 0 0 0 0 0
0 0 0 0 0 0 0 0 0 0 0 0 0 0 0 0 0 0 0 0 0 0 0 0 0 0 0 0 0 0 0 0 0 0 0 0 0 0 0 0 0 0 0
0 0 0 0 0 0 0 0 0 0 0 0 0 0 0 0 0 0 0 0 0 0 0 0 0 0 0 0 0 0 0 0 0 0 0 0 0 0 0 0 0 0 0
0 0 0 0 0 0 0 0 0 0 0 0 0 0 0 0 0 0 0 0 0 0 0 0 0 0 0 0 0 0 0 0 0 0 0 0 0 0 0 0 0 0 0
0 0 0 0 0 0 0 0 0 0 0 0 0 0 0 0 0 0 0 0 0 0 0 0 0 0 0 0 0 0 0 0 0 0 0 0 0 0 0 0 0 0 0
0 0 0 0 0 0 0 0 0 0 0 0 0 0 0 0 0 0 0 0 0 0 0 0 0 0 0 0 0 0 0 0 0 0 0 0 0 0 0 0 0 0 0
0 0 0 0 0 0 0 0 0 0 0 0 0 0 0 0 0 0 0 0 0 0 0 0 0 0 0 0 0 0 0 0 0 0 0 0 0 0 0 0 0 0 0
0 0 0 0 0 0 0 0 0 0 0 0 0 0 0 0 0 0 0 0 0 0 0 0 0 0 0 0 0 0 0 0 0 0 0 0 0 0 0 0 0 0 0
0 0 0 0 0 0 0 0 0 0 0 0 0 0 0 0 0 0 0 0 0 0 0 0 0 0 0 0 0 0 0 0 0 0 0 0 0 0 0 0 0 0 0
0 0 0 0 0 0 0 0 0 0 0 0 0 0 0 0 0 0 0 0 0 0 0 0 0 0 0 0 0 0 0 0 0 0 0 0 0 0 0 0 0 0 0
0 0 0 0 0 0 0 0 0 0 0 0 0 0 0 0 0 0 0 0 0 0 0 0 0 0 0 0 0 0 0 0 0 0 0 0 0 0 0 0 0 0 0
0 0 0 0 0 0 0 0 0 0 0 0 0 0 0 0 0 0 0 0 0 0 0 0 0 0 0 0 0 0 0 0 0 0 0 0 0 0 0 0 0 0 0
0 0 0 0 0 0 0 0 0 0 0 0 0 0 0 0 0 0 0 0 0 0 0 0 0 0 0 0 0 0 0 0 0 0 0 0 0 0 0 0 0 0 0
0 0 0 0 0 0 0 0 0 0 0 0 0 0 0 0 0 0 0 0 0 0 0 0 0 0 0 0 0 0 0 0 0 0 0 0 0 0 0 0 0 0 0
Height
5783 5784 5786 5788 5789 5790 5792 5794 5795 5797 5799 5801 5802 5804 5806 5808 5811 5813 5815 5816 5818 5820 5822 5823 5825 5826 5827 5828 5830 5831 5831 5832 5833 5833 5834 5834 5834 5834 5834 5834 5834 5834 5833
5774 5776 5777 5779 5780 5782 5783 5785 5787 5789 5791 5792 5794 5796 5798 5801 5803 5805 5807 5810 5812 5813 5815 5817 5818 5820 5821 5823 5824 5825 5826 5827 5827 5828 5829 5829 5829 5829 5830 5830 5830 5829 5829
5764 5766 5768 5769 5771 5772 5774 5776 5778 5780 5782 5784 5786 5788 5790 5792 5795 5797 5799 5802 5804 5806 5808 5809 5811 5813 5814 5816 5817 5819 5820 5821 5822 5822 5823 5824 5824 5824 5824 5825 5825 5825 5825
5753 5755 5757 5759 5760 5762 5764 5766 5768 5770 5772 5774 5776 5779 5781 5783 5786 5788 5790 5793 5795 5798 5800 5802 5803 5805 5807 5809 5810 5812 5814 5815 5816 5816 5817 5818 5818 5819 5819 5819 5820 5819 5820
5742 5744 5745 5747 5749 5751 5753 5755 5757 5759 5761 5764 5766 5768 5771 5773 5776 5778 5780 5783 5786 5788 5791 5793 5795 5797 5799 5801 5803 5805 5806 5808 5809 5810 5811 5811 5812 5812 5813 5813 5814 5814 5814
5729 5731 5733 5735 5737 5739 5741 5743 5745 5747 5750 5752 5755 5757 5760 5762 5765 5767 5770 5772 5775 5778 5780 5783 5786 5788 5790 5792 5794 5796 5798 5800 5801 5802 5803 5804 5805 5806 5806 5807 5807 5808 5808
5717 5719 5721 5722 5724 5726 5728 5730 5733 5735 5737 5739 5742 5745 5747 5749 5752 5755 5758 5761 5764 5767 5769 5772 5775 5778 5780 5783 5785 5787 5789 5791 5792 5794 5795 5796 5798 5798 5799 5800 5800 5801 5801
5705 5706 5708 5709 5711 5713 5715 5717 5719 5721 5723 5725 5728 5731 5734 5737 5739 5742 5744 5748 5751 5754 5757 5760 5763 5766 5770 5772 5775 5777 5779 5781 5783 5784 5786 5788 5789 5790 5791 5792 5793 5793 5794
5692 5693 5694 5696 5697 5699 5701 5703 5704 5707 5709 5711 5713 5715 5719 5722 5725 5728 5731 5734 5737 5741 5744 5747 5751 5754 5757 5761 5764 5766 5768 5770 5772 5775 5777 5778 5780 5781 5783 5784 5784 5785 5786
5678 5680 5681 5682 5683 5685 5686 5688 5690 5692 5694 5697 5698 5700 5703 5706 5709 5713 5717 5720 5723 5726 5730 5734 5738 5741 5745 5748 5751 5754 5757 5759 5762 5764 5766 5768 5770 5772 5773 5774 5775 5776 5777
5665 5666 5667 5668 5669 5670 5671 5673 5675 5676 5678 5681 5683 5685 5687 5690 5693 5696 5702 5706 5708 5712 5715 5719 5723 5727 5731 5735 5738 5742 5744 5747 5750 5753 5755 5757 5759 5761 5763 5764 5765 5767 5767
5651 5651 5652 5653 5654 5655 5656 5658 5660 5661 5663 5665 5667 5669 5671 5675 5677 5680 5685 5689 5693 5697 5700 5704 5709 5713 5717 5721 5725 5728 5731 5734 5737 5740 5743 5745 5748 5750 5751 5752 5754 5756 5757
5636 5636 5638 5638 5639 5640 5642 5643 5645 5646 5648 5650 5652 5654 5656 5659 5662 5665 5669 5673 5678 5682 5686 5690 5694 5699 5703 5707 5711 5715 5718 5721 5724 5727 5730 5733 5735 5737 5739 5740 5742 5744 5746
5622 5622 5623 5624 5624 5625 5627 5628 5629 5631 5633 5635 5637 5639 5641 5644 5647 5650 5654 5659 5663 5667 5672 5676 5680 5684 5689 5693 5697 5700 5704 5708 5711 5714 5717 5720 5722 5725 5727 5728 5730 5732 5733
5608 5608 5608 5609 5609 5610 5611 5612 5614 5615 5617 5620 5622 5624 5627 5630 5633 5636 5640 5644 5648 5652 5658 5663 5666 5670 5674 5678 5683 5686 5690 5693 5697 5700 5703 5706 5709 5711 5713 5715 5717 5719 5720
5593 5593 5594 5594 5594 5595 5596 5597 5598 5600 5602 5605 5608 5610 5613 5616 5619 5622 5625 5629 5633 5637 5643 5648 5652 5656 5659 5663 5668 5672 5676 5679 5682 5686 5689 5692 5694 5697 5699 5702 5703 5705 5707
5578 5578 5579 5579 5579 5580 5580 5582 5583 5585 5587 5590 5593 5596 5599 5602 5605 5608 5611 5614 5618 5622 5628 5633 5637 5640 5644 5648 5653 5657 5661 5665 5668 5671 5674 5677 5680 5682 5685 5687 5689 5691 5692
5563 5563 5564 5564 5565 5565 5566 5567 5569 5571 5573 5576 5579 5582 5585 5588 5591 5594 5596 5600 5603 5607 5612 5617 5622 5625 5629 5634 5638 5642 5646 5650 5653 5657 5660 5662 5665 5667 5670 5672 5674 5676 5678
5549 5549 5549 5550 5550 5551 5551 5552 5554 5556 5559 5562 5565 5568 5571 5573 5576 5579 5582 5585 5588 5592 5596 5601 5606 5610 5614 5618 5622 5626 5630 5634 5638 5641 5644 5647 5650 5652 5654 5657 5659 5661 5663
5534 5534 5535 5535 5536 5536 5537 5538 5540 5542 5545 5548 5551 5553 5556 5559 5562 5565 5567 5570 5573 5577 5581 5585 5590 5595 5599 5602 5606 5611 5615 5619 5622 5626 5629 5632 5635 5637 5639 5642 5644 5646 5647
5519 5519 5520 5521 5521 5522 5522 5524 5526 5528 5531 5534 5537 5539 5542 5545 5547 5550 5552 5555 5558 5562 5565 5569 5574 5579 5583 5587 5591 5595 5599 5603 5606 5609 5613 5617 5620 5622 5623 5625 5627 5629 5631
5505 5505 5505 5506 5507 5508 5509 5510 5512 5514 5517 5520 5523 5526 5528 5530 5533 5535 5538 5540 5543 5546 5550 5554 5559 5563 5568 5572 5575 5578 5582 5586 5591 5595 5597 5601 5603 5606 5608 5610 5611 5612 5614
5491 5491 5492 5492 5493 5494 5495 5497 5498 5501 5504 5506 5508 5511 5514 5516 5518 5520 5523 5526 5529 5531 5535 5539 5543 5547 5552 5556 5560 5563 5565 5569 5574 5577 5580 5585 5587 5590 5592 5593 5595 5596 5598
5478 5478 5478 5479 5480 5481 5482 5484 5486 5488 5491 5493 5495 5497 5500 5502 5504 5506 5509 5512 5514 5517 5521 5524 5529 5533 5536 5539 5542 5546 5549 5552 5556 5559 5562 5567 5571 5574 5576 5577 5579 5580 5581
5465 5465 5466 5466 5467 5469 5470 5472 5473 5476 5478 5480 5482 5484 5486 5488 5491 5493 5495 5498 5501 5503 5505 5509 5513 5516 5519 5522 5525 5529 5532 5535 5540 5543 5546 5550 5554 5558 5560 5562 5563 5564 5565
5453 5453 5453 5454 5454 5456 5457 5459 5461 5463 5466 5468 5470 5471 5473 5475 5477 5478 5481 5484 5486 5489 5491 5494 5498 5501 5504 5506 5509 5512 5515 5519 5523 5527 5530 5534 5537 5539 5544 5547 5547 5548 5549
Wind_Speed
35 35 35 35 35 35 35 35 34 34 34 34 34 33 32 32 31 31 30 29 28 28 28 27 27 26 25 24 24 23 21 21 20 20 20 19 19 19 18 18 17 17 16
37 37 37 37 37 37 37 37 36 36 36 36 36 36 35 34 34 33 33 32 31 31 30 30 29 28 28 27 26 25 24 23 22 21 21 20 20 20 20 20 19 18 18
39 39 39 39 39 39 40 39 38 38 38 38 38 38 37 37 37 36 36 35 34 34 33 32 32 31 30 29 28 27 26 26 24 23 23 22 22 21 21 20 20 19 19
41 41 41 41 42 42 42 42 41 40 40 40 40 40 39 39 39 39 39 38 37 37 35 34 34 33 32 31 30 30 29 28 27 25 24 24 24 23 22 22 22 21 21
43 43 43 44 44 43 43 43 43 43 43 43 43 43 43 42 42 42 41 40 40 39 38 37 36 36 35 34 33 32 31 31 30 28 27 26 25 25 24 23 23 23 22
44 44 44 44 45 45 45 45 45 45 45 46 46 46 46 45 45 45 44 43 43 42 41 40 40 39 38 37 36 34 33 33 32 31 30 29 28 27 26 26 26 25 24
45 45 45 45 45 46 47 48 47 47 47 48 48 48 48 48 47 47 46 46 45 44 43 42 42 42 41 39 38 37 35 35 35 34 33 32 31 30 29 28 27 27 27
46 45 46 46 47 47 48 49 49 49 49 49 49 49 49 50 50 49 49 48 47 46 46 45 44 44 43 42 41 39 38 37 36 36 36 35 33 32 31 31 30 29 29
48 48 47 48 48 49 49 50 50 50 50 51 51 51 52 51 51 51 50 50 50 49 49 48 47 46 46 45 43 42 41 40 39 38 38 37 36 35 34 33 32 32 32
49 50 50 50 50 50 51 51 52 52 51 51 52 53 53 53 52 52 52 51 52 52 51 51 49 48 48 47 46 45 44 43 42 41 40 39 38 38 37 36 35 34 34
51 51 52 51 51 51 52 53 53 53 53 52 52 53 53 54 53 53 52 51 52 53 53 52 52 51 50 49 48 47 46 45 45 44 43 42 41 40 40 39 38 37 36
51 51 52 52 52 52 52 53 53 54 54 54 52 53 52 52 52 53 52 51 52 51 52 52 52 51 51 50 49 48 48 47 46 45 44 44 44 43 42 41 40 40 39
50 51 52 53 53 54 54 54 54 54 54 53 53 53 53 53 52 52 52 52 52 51 52 52 52 51 51 51 50 50 50 49 48 48 47 46 46 45 44 43 43 42 41
51 51 52 53 53 54 55 55 54 54 54 53 53 54 54 53 52 52 52 52 51 51 52 52 52 52 52 52 51 51 51 51 51 50 49 48 48 47 48 46 45 45 44
51 52 52 52 53 53 54 54 55 54 53 53 52 53 54 54 54 54 53 53 53 52 52 53 53 53 53 53 53 52 52 52 52 51 51 50 50 50 49 49 47 47 46
52 52 52 52 52 52 53 53 54 54 53 52 52 53 53 54 53 54 54 54 54 54 53 53 54 54 54 55 54 54 53 53 52 52 52 52 51 51 50 51 50 49 49
51 52 52 51 51 51 51 51 52 52 53 52 52 52 52 53 54 54 55 55 55 55 55 54 54 55 55 55 55 54 53 54 53 52 52 53 53 53 52 52 52 51 50
51 51 51 50 50 50 51 51 51 52 52 52 53 53 53 52 53 53 54 55 55 55 56 54 55 56 56 56 56 55 54 53 53 53 52 52 53 54 54 54 53 53 51
50 51 51 51 51 51 51 52 51 51 51 52 52 52 51 51 53 53 55 55 55 56 56 56 55 55 56 55 56 55 55 54 54 54 53 53 53 54 54 54 54 55 53
50 50 51 51 51 51 51 51 51 50 51 51 52 51 51 51 52 52 54 55 56 57 57 56 56 56 56 56 56 56 56 55 55 55 55 54 54 54 54 55 56 56 56
48 49 50 50 51 50 50 49 49 49 50 50 51 51 51 51 51 51 52 53 55 55 56 56 56 56 57 57 57 57 57 56 56 57 56 56 56 55 55 55 56 57 58
47 48 49 50 49 49 48 47 48 48 49 49 50 51 51 51 50 51 51 53 55 55 56 56 56 56 55 56 58 58 58 58 58 58 58 57 56 56 55 55 56 56 57
44 45 46 47 47 46 46 46 46 47 48 49 50 49 49 49 49 49 50 51 53 54 56 55 55 55 55 55 56 58 58 58 59 59 59 58 57 56 55 55 56 56 56
43 42 43 43 44 44 45 45 45 45 46 47 47 48 48 49 49 49 50 50 51 52 53 54 54 54 55 56 56 57 58 58 58 59 59 57 57 57 56 55 55 55 56
41 42 42 42 42 43 43 43 43 43 44 45 45 46 47 48 50 50 49 50 50 51 52 52 53 53 55 55 56 57 57 58 58 58 58 57 57 57 56 56 55 55 56
40 40 41 41 41 42 43 43 42 42 42 43 44 45 46 46 47 48 49 49 50 51 52 53 53 53 52 52 53 55 56 58 59 58 57 57 57 57 57 56 56 56 55
Wind_Direction
255 255 255 256 256 255 254 253 253 253 253 253 252 252 251 251 251 249 248 248 249 249 250 251 251 252 253 254 256 258 260 262 263 263 264 265 267 270 273 277 280 281 283
257 257 257 256 257 256 255 254 253 253 253 252 253 252 252 252 253 251 249 249 249 250 250 251 252 251 252 254 256 257 259 261 263 264 264 264 266 269 272 274 276 279 281
258 258 258 257 257 257 256 255 254 253 253 253 253 253 252 253 253 252 250 250 250 250 250 251 251 252 252 253 255 256 258 260 263 263 264 265 266 268 270 271 273 276 279
259 259 259 258 258 258 257 256 255 254 253 253 253 253 253 253 253 253 251 251 251 251 251 251 251 252 253 253 254 256 257 260 261 262 263 264 266 267 269 269 270 272 276
259 260 260 259 258 258 258 257 257 256 255 254 253 253 253 254 253 254 252 251 250 251 251 251 251 251 253 254 254 256 256 258 260 260 261 263 265 266 268 269 270 271 273
259 260 260 259 258 258 258 257 257 256 256 255 254 253 253 253 254 253 253 252 251 251 251 251 251 252 253 254 254 255 257 258 259 260 261 262 264 265 266 267 269 270 271
259 260 260 260 259 258 258 258 257 256 257 257 255 254 254 254 254 253 252 251 251 251 251 251 252 252 253 254 254 255 257 257 258 260 261 261 262 264 265 267 268 270 271
260 260 261 262 261 260 259 259 259 258 258 258 257 255 254 254 254 253 252 251 250 251 251 250 251 252 252 252 253 254 255 257 258 259 260 261 261 262 264 266 268 269 270
261 262 263 262 262 261 260 260 260 260 259 259 257 256 256 254 253 253 252 251 250 250 250 251 251 251 251 251 252 253 254 256 257 258 259 260 260 261 263 265 266 268 269
263 263 264 263 262 262 262 261 261 261 260 260 259 258 257 256 254 253 251 251 250 250 250 251 251 250 250 251 252 253 254 255 256 257 258 259 260 261 262 264 265 267 268
264 265 265 265 263 262 262 261 262 261 261 261 260 259 258 256 254 253 251 250 250 249 249 250 250 250 250 250 251 252 253 254 256 256 257 259 260 260 261 263 263 265 266
266 266 265 264 263 262 262 261 261 261 261 261 260 259 258 256 254 252 251 250 250 248 248 249 250 251 251 251 250 251 253 254 255 256 257 259 260 260 261 261 262 264 266
267 266 266 265 264 263 262 261 261 260 260 259 259 259 257 256 254 253 251 251 250 249 248 249 249 250 251 252 252 252 252 253 254 255 257 258 258 259 260 261 262 263 265
267 267 267 266 265 264 263 262 260 259 259 258 258 257 257 256 254 253 252 250 250 249 248 248 249 250 250 251 252 252 252 253 254 255 256 258 258 259 260 261 262 263 264
267 266 266 266 266 265 264 262 260 259 258 258 257 255 255 255 254 253 253 251 251 250 248 249 249 249 250 251 252 253 253 254 254 255 256 257 259 260 260 260 261 262 263
267 266 266 266 266 266 264 262 260 258 257 257 256 255 254 254 254 254 253 252 251 251 249 250 250 249 250 251 252 253 253 254 255 256 257 258 258 259 260 260 262 262 263
268 266 266 266 265 264 263 261 259 258 256 255 256 256 255 255 254 254 254 253 252 252 252 250 250 251 251 252 252 252 252 253 255 256 257 258 258 258 259 260 261 262 263
268 267 266 266 265 263 262 260 259 257 256 255 256 256 255 255 254 254 254 253 252 252 252 251 251 251 252 252 252 252 252 254 255 256 257 258 259 259 259 259 260 261 263
268 267 266 266 265 264 262 261 259 258 256 255 256 256 256 255 255 255 254 253 253 253 252 251 251 251 251 251 251 252 253 254 254 255 256 257 258 259 260 259 260 261 262
268 266 266 265 265 264 263 262 259 258 256 256 255 256 256 256 256 256 256 255 254 253 252 251 251 250 251 251 251 252 253 254 254 255 256 256 258 259 260 260 261 261 262
269 267 267 265 264 264 264 262 260 258 257 255 255 255 255 256 257 257 257 256 255 254 252 251 250 250 252 252 253 254 254 254 254 255 255 256 258 259 260 261 262 263 262
270 268 267 265 263 263 263 261 259 257 256 255 255 255 256 256 257 258 257 256 256 255 254 253 252 252 253 254 255 255 255 255 255 255 255 255 257 259 261 262 263 264 264
272 270 268 265 263 262 261 259 258 258 258 257 256 256 256 257 257 258 256 257 257 256 255 254 253 252 253 254 255 256 255 254 255 255 255 255 256 258 260 262 262 263 265
272 270 268 265 263 261 260 260 260 259 259 259 258 258 258 257 257 258 257 257 257 256 254 254 254 253 253 254 255 256 255 255 255 256 255 255 255 257 259 261 262 263 264
272 270 269 267 264 261 259 260 260 260 260 259 260 260 259 259 259 259 258 257 257 256 255 255 253 253 254 254 255 255 255 255 255 256 256 256 256 257 259 260 261 262 263
271 270 269 266 264 261 259 259 260 261 260 260 261 261 260 259 259 259 259 258 257 257 256 255 254 254 254 255 256 256 256 256 255 255 256 256 257 258 259 259 260 261 262